When you browse on this site, cookies collect data to enhance your experience and personalize the content and advertising you see.
Visit our Privacy Policy to learn more. By continuing to use the site, you agree to this use of cookies and data.
  • In Austria
  • List of Countries
  • For 7 days
  • Water Temperature
  • Satellite Maps
  • Weather Map
  • News
  • Weather Widgets
  • user-avatar
    Login

    Hourly Weather Jaú

    Today, 22 April, Monday

    Time Temperature Precipitation Wind Pressure Humidity
    00:00 +27°C° 0 mm 2 mps 753 mmHg 48%
    01:00 +27°C° 0.1 mm 2 mps 753 mmHg 49%
    02:00 +27°C° 0.1 mm 2 mps 753 mmHg 50%
    03:00 +26°C° 0.1 mm 2 mps 753 mmHg 51%
    04:00 +26°C° 0.1 mm 1 mps 753 mmHg 50%
    05:00 +27°C° 0.1 mm 1 mps 753 mmHg 50%
    06:00 +27°C° 0.1 mm 1 mps 754 mmHg 50%
    07:00 +28°C° 0.1 mm 2 mps 754 mmHg 46%
    08:00 +29°C° 0.1 mm 2 mps 755 mmHg 43%
    09:00 +30°C° 0.1 mm 3 mps 755 mmHg 39%
    10:00 +32°C° 0.1 mm 4 mps 755 mmHg 36%
    11:00 +33°C° 0.1 mm 4 mps 756 mmHg 34%
    12:00 +34°C° 0.1 mm 5 mps 756 mmHg 31%
    13:00 +32°C° 0.2 mm 8 mps 756 mmHg 36%
    14:00 +29°C° 0.2 mm 10 mps 756 mmHg 42%
    15:00 +27°C° 0.2 mm 13 mps 756 mmHg 47%
    16:00 +26°C° 0.1 mm 12 mps 756 mmHg 48%
    17:00 +26°C° 0.1 mm 11 mps 757 mmHg 50%
    18:00 +24°C° 0.1 mm 10 mps 757 mmHg 51%
    19:00 +24°C° 0 mm 10 mps 757 mmHg 50%
    20:00 +24°C° 0 mm 10 mps 758 mmHg 48%
    21:00 +24°C° 0 mm 11 mps 758 mmHg 47%
    22:00 +24°C° 0 mm 10 mps 758 mmHg 45%
    23:00 +24°C° 0 mm 10 mps 758 mmHg 42%

    Tomorrow, 23 April, Tuesday

    Time Temperature Precipitation Wind Pressure Humidity
    00:00 +24°C° 0 mm 10 mps 758 mmHg 40%
    01:00 +24°C° 0 mm 10 mps 758 mmHg 40%
    02:00 +24°C° 0 mm 11 mps 758 mmHg 40%
    03:00 +24°C° 0 mm 12 mps 758 mmHg 41%
    04:00 +24°C° 0 mm 12 mps 759 mmHg 41%
    05:00 +24°C° 0 mm 11 mps 759 mmHg 41%
    06:00 +24°C° 0 mm 11 mps 760 mmHg 42%
    07:00 +24°C° 0 mm 11 mps 760 mmHg 39%
    08:00 +26°C° 0 mm 10 mps 761 mmHg 36%
    09:00 +27°C° 0 mm 10 mps 762 mmHg 33%
    10:00 +27°C° 0 mm 10 mps 762 mmHg 31%
    11:00 +27°C° 0 mm 10 mps 762 mmHg 30%
    12:00 +28°C° 0 mm 10 mps 762 mmHg 28%
    13:00 +27°C° 0 mm 11 mps 761 mmHg 28%
    14:00 +27°C° 0 mm 11 mps 761 mmHg 29%
    15:00 +27°C° 0 mm 11 mps 760 mmHg 29%
    16:00 +26°C° 0 mm 11 mps 760 mmHg 31%
    17:00 +26°C° 0 mm 11 mps 760 mmHg 33%
    18:00 +24°C° 0 mm 10 mps 761 mmHg 35%
    19:00 +24°C° 0 mm 10 mps 761 mmHg 36%
    20:00 +24°C° 0 mm 9 mps 762 mmHg 37%
    21:00 +24°C° 0 mm 8 mps 762 mmHg 39%
    22:00 +24°C° 0 mm 7 mps 762 mmHg 39%
    23:00 +24°C° 0 mm 7 mps 762 mmHg 39%

    Day after tomorrow, 24 April, Wednesday

    Time Temperature Precipitation Wind Pressure Humidity
    00:00 +24°C° 0 mm 6 mps 762 mmHg 39%
    01:00 +23°C° 0 mm 7 mps 762 mmHg 40%
    02:00 +23°C° 0 mm 7 mps 761 mmHg 41%
    03:00 +23°C° 0 mm 7 mps 761 mmHg 42%
    04:00 +23°C° 0 mm 8 mps 761 mmHg 44%
    05:00 +23°C° 0 mm 8 mps 762 mmHg 46%
    06:00 +23°C° 0 mm 8 mps 762 mmHg 48%
    07:00 +24°C° 0 mm 8 mps 762 mmHg 45%
    08:00 +26°C° 0 mm 8 mps 763 mmHg 42%
    09:00 +27°C° 0 mm 8 mps 763 mmHg 39%
    10:00 +27°C° 0 mm 9 mps 763 mmHg 37%
    11:00 +27°C° 0 mm 9 mps 762 mmHg 35%
    12:00 +28°C° 0 mm 9 mps 762 mmHg 34%
    13:00 +28°C° 0 mm 10 mps 762 mmHg 33%
    14:00 +28°C° 0 mm 10 mps 761 mmHg 33%
    15:00 +27°C° 0 mm 10 mps 761 mmHg 33%
    16:00 +27°C° 0 mm 10 mps 761 mmHg 35%
    17:00 +26°C° 0 mm 10 mps 761 mmHg 37%
    18:00 +26°C° 0 mm 9 mps 761 mmHg 40%
    19:00 +26°C° 0 mm 9 mps 761 mmHg 40%
    20:00 +24°C° 0 mm 8 mps 762 mmHg 41%
    21:00 +24°C° 0 mm 8 mps 762 mmHg 42%
    22:00 +24°C° 0 mm 7 mps 762 mmHg 42%
    23:00 +24°C° 0 mm 7 mps 761 mmHg 41%

    25 April, Thursday

    Time Temperature Precipitation Wind Pressure Humidity
    00:00 +24°C° 0 mm 7 mps 761 mmHg 41%
    01:00 +24°C° 0 mm 7 mps 761 mmHg 41%
    02:00 +24°C° 0 mm 7 mps 760 mmHg 41%
    03:00 +24°C° 0 mm 7 mps 760 mmHg 41%
    04:00 +24°C° 0 mm 7 mps 760 mmHg 40%
    05:00 +24°C° 0 mm 7 mps 761 mmHg 39%
    06:00 +24°C° 0 mm 7 mps 761 mmHg 39%
    07:00 +26°C° 0 mm 8 mps 761 mmHg 35%
    08:00 +27°C° 0 mm 8 mps 762 mmHg 31%
    09:00 +28°C° 0 mm 8 mps 762 mmHg 27%
    10:00 +29°C° 0 mm 8 mps 762 mmHg 26%
    11:00 +29°C° 0 mm 7 mps 761 mmHg 25%
    12:00 +30°C° 0 mm 7 mps 761 mmHg 24%
    13:00 +29°C° 0 mm 7 mps 761 mmHg 26%
    14:00 +29°C° 0 mm 8 mps 760 mmHg 29%
    15:00 +29°C° 0 mm 8 mps 760 mmHg 31%
    16:00 +28°C° 0 mm 7 mps 760 mmHg 33%
    17:00 +27°C° 0 mm 7 mps 760 mmHg 35%
    18:00 +26°C° 0 mm 7 mps 760 mmHg 38%
    19:00 +26°C° 0 mm 6 mps 760 mmHg 38%
    20:00 +26°C° 0 mm 6 mps 760 mmHg 38%
    21:00 +26°C° 0 mm 5 mps 760 mmHg 39%
    22:00 +26°C° 0 mm 5 mps 760 mmHg 38%
    23:00 +26°C° 0 mm 4 mps 760 mmHg 38%

    26 April, Friday

    Time Temperature Precipitation Wind Pressure Humidity
    00:00 +25°C° 0 mm 4 mps 759 mmHg 37%
    01:00 +25°C° 0 mm 4 mps 759 mmHg 37%
    02:00 +25°C° 0 mm 5 mps 759 mmHg 37%
    03:00 +25°C° 0 mm 5 mps 759 mmHg 38%
    04:00 +25°C° 0 mm 5 mps 759 mmHg 37%
    05:00 +25°C° 0 mm 5 mps 759 mmHg 37%
    06:00 +25°C° 0 mm 5 mps 760 mmHg 37%
    07:00 +26°C° 0 mm 5 mps 760 mmHg 31%
    08:00 +28°C° 0 mm 5 mps 760 mmHg 25%
    09:00 +29°C° 0 mm 5 mps 761 mmHg 20%
    10:00 +30°C° 0 mm 5 mps 760 mmHg 18%
    11:00 +30°C° 0 mm 5 mps 760 mmHg 16%
    12:00 +32°C° 0 mm 5 mps 760 mmHg 15%
    13:00 +32°C° 0 mm 5 mps 760 mmHg 17%
    14:00 +32°C° 0 mm 5 mps 759 mmHg 20%
    15:00 +32°C° 0 mm 6 mps 759 mmHg 22%
    16:00 +30°C° 0 mm 5 mps 759 mmHg 26%
    17:00 +29°C° 0 mm 5 mps 759 mmHg 30%
    18:00 +28°C° 0 mm 5 mps 759 mmHg 34%
    19:00 +27°C° 0 mm 4 mps 760 mmHg 35%
    20:00 +27°C° 0 mm 3 mps 760 mmHg 36%
    21:00 +27°C° 0 mm 3 mps 760 mmHg 37%
    22:00 +27°C° 0 mm 3 mps 760 mmHg 36%
    23:00 +27°C° 0 mm 3 mps 760 mmHg 35%

    27 April, Saturday

    Time Temperature Precipitation Wind Pressure Humidity
    00:00 +26°C° 0 mm 3 mps 760 mmHg 34%
    01:00 +26°C° 0 mm 3 mps 759 mmHg 34%
    02:00 +26°C° 0 mm 3 mps 759 mmHg 34%
    03:00 +26°C° 0 mm 4 mps 759 mmHg 34%
    04:00 +26°C° 0 mm 3 mps 759 mmHg 35%
    05:00 +26°C° 0 mm 3 mps 760 mmHg 36%
    06:00 +26°C° 0 mm 2 mps 760 mmHg 37%
    07:00 +27°C° 0 mm 2 mps 760 mmHg 33%
    08:00 +28°C° 0 mm 2 mps 761 mmHg 29%
    09:00 +29°C° 0 mm 3 mps 761 mmHg 25%
    10:00 +30°C° 0 mm 3 mps 761 mmHg 22%
    11:00 +31°C° 0 mm 2 mps 761 mmHg 19%
    12:00 +31°C° 0 mm 2 mps 761 mmHg 16%
    13:00 +31°C° 0 mm 2 mps 760 mmHg 17%
    14:00 +32°C° 0 mm 2 mps 760 mmHg 17%
    15:00 +33°C° 0 mm 3 mps 759 mmHg 17%
    16:00 +31°C° 0 mm 3 mps 760 mmHg 20%
    17:00 +30°C° 0 mm 3 mps 760 mmHg 22%
    18:00 +30°C° 0 mm 3 mps 760 mmHg 25%
    19:00 +29°C° 0 mm 3 mps 760 mmHg 26%
    20:00 +29°C° 0 mm 3 mps 760 mmHg 27%
    21:00 +29°C° 0 mm 4 mps 760 mmHg 28%
    22:00 +28°C° 0 mm 3 mps 760 mmHg 28%
    23:00 +28°C° 0 mm 3 mps 760 mmHg 28%
    Show more